User: anonymous   Login
Location: Unspecified
(0.0000°N, 0.0000°E)
Time: 19:23:08
(UTC+00:00)
Language:

UNISAT 3 - Orbit

View from above orbital plane
View from above orbital plane
View from above satellite
View from above satellite

Ground track
Ground track

The orbit data is extracted from the following two-line orbital elements,

1 28373U 04025H   18351.38210211  .00000043  00000-0  24779-4 0  9990
2 28373  98.3953 290.4835 0068820 348.3929  11.5672 14.45517779763092
Epoch (UTC): 17 December 2018 09:10:13
Eccentricity: 0.0068820
inclination: 98.3953°
perigee height: 691 km
apogee height: 789 km
right ascension of ascending node: 290.4835°
argument of perigee: 348.3929°
revolutions per day: 14.45517779
mean anomaly at epoch: 11.5672°
orbit number at epoch: 76309

The dashed part of the orbit path shows where the satellite is in the earth's shadow,  

DLR